Tracking 20093 objects as of 15-Dec-2019
HD Live streaming from Space Station
objects crossing your sky now

COSMOS 2251 DEB

Track COSMOS 2251 DEB now!
10-day predictions


NORAD ID: 34424
Int'l Code: 1993-036RR
Perigee: 627.8 km
Apogee: 697.5 km
Inclination: 74.0 °
Period: 97.8 minutes
Semi major axis: 7033 km
RCS: 0.023 m2 (small)
Launch date: June 16, 1993
Source: Commonwealth of Independent States (former USSR) (CIS)
Launch site: PLESETSK MISSILE AND SPACE COMPLEX (PKMTR)

Note: This is SATELLITE DEBRIS
aabbcc
Your satellite tracking list
Your tracking list is empty




NASA's NSSDC Master Catalog

Two Line Element Set (TLE):
1 34424U 93036RR  19348.83702365  .00001012  00000-0  16462-3 0  9993
2 34424  74.0179  12.2533 0049541 332.1365 201.5130 14.71731558576630
Source of the keplerian elements: AFSPC